FW4655 Weather Reports


Display with metric or nautical units.
time (UTC)temp
F
wind
direction
speed
MPH
gust
MPH
rain 1hr
in
rain 24hr
in
rain mn
in
humidity
%
barometer
mb
20260504050507 77 42 0.0 3.0 0.00 0.00 0.00 42 1008.1
20260504050015 78 48 1.0 6.0 0.00 0.00 0.00 42 1008.1
20260504045507 78 46 2.0 6.0 0.00 0.00 0.00 42 1008.2
20260504045009 78 74 1.0 5.0 0.00 0.00 0.00 42 1008.1
20260504044534 78 62 1.0 5.0 0.00 0.00 0.00 41 1008.1
20260504044007 78 42 1.0 3.0 0.00 0.00 0.00 42 1008.0
20260504043507 79 68 0.0 2.0 0.00 0.00 0.00 41 1008.0
20260504043023 79 13 0.0 4.0 0.00 0.00 0.00 41 1008.0
20260504042508 80 44 1.0 6.0 0.00 0.00 0.00 40 1008.0
20260504042009 80 64 2.0 6.0 0.00 0.00 0.00 40 1008.0
20260504041522 80 65 1.0 5.0 0.00 0.00 0.00 40 1007.9
20260504041007 80 66 2.0 5.0 0.00 0.00 0.00 40 1007.9
20260504040510 80 4 1.0 6.0 0.00 0.00 0.00 40 1007.8
20260504040022 80 47 3.0 6.0 0.00 0.00 0.00 40 1007.7
20260504035511 81 27 2.0 5.0 0.00 0.00 0.00 40 1007.7
20260504035007 81 23 2.0 5.0 0.00 0.00 0.00 40 1007.5
20260504034513 81 61 2.0 5.0 0.00 0.00 0.00 40 1007.5
20260504034006 81 331 0.0 3.0 0.00 0.00 0.00 40 1007.5
20260504033513 82 53 0.0 3.0 0.00 0.00 0.00 38 1007.5
20260504033018 82 95 0.0 3.0 0.00 0.00 0.00 38 1007.4
20260504032507 83 70 0.0 3.0 0.00 0.00 0.00 37 1007.4
20260504032009 83 58 1.0 5.0 0.00 0.00 0.00 36 1007.4
20260504031524 84 44 0.0 5.0 0.00 0.00 0.00 36 1007.4
20260504031008 84 92 1.0 6.0 0.00 0.00 0.00 35 1007.3
20260504030510 85 81 2.0 6.0 0.00 0.00 0.00 34 1007.3
20260504030024 85 50 1.0 5.0 0.00 0.00 0.00 34 1007.3
20260504025508 85 91 3.0 7.0 0.00 0.00 0.00 33 1007.2
20260504025009 86 36 2.0 8.0 0.00 0.00 0.00 33 1007.2
20260504024525 86 61 2.0 9.0 0.00 0.00 0.00 32 1007.2
20260504024012 86 50 3.0 10.0 0.00 0.00 0.00 32 1007.1
20260504023508 86 101 2.0 10.0 0.00 0.00 0.00 32 1007.1
20260504023015 87 53 5.0 8.0 0.00 0.00 0.00 31 1007.2
20260504022510 87 53 2.0 7.0 0.00 0.00 0.00 31 1007.0
20260504022010 87 324 3.0 9.0 0.00 0.00 0.00 31 1007.1
20260504021531 88 47 3.0 10.0 0.00 0.00 0.00 31 1007.1
20260504021009 88 47 5.0 10.0 0.00 0.00 0.00 30 1007.1
20260504020507 88 56 5.0 10.0 0.00 0.00 0.00 30 1007.1
20260504020024 89 110 5.0 9.0 0.00 0.00 0.00 30 1007.1
20260504015513 89 83 4.0 9.0 0.00 0.00 0.00 30 1007.1
20260504015009 89 40 3.0 8.0 0.00 0.00 0.00 30 1007.1
20260504014523 89 25 3.0 8.0 0.00 0.00 0.00 30 1007.1
20260504014010 89 77 2.0 7.0 0.00 0.00 0.00 29 1007.2
20260504013509 90 85 3.0 11.0 0.00 0.00 0.00 29 1007.1
20260504013035 90 47 4.0 11.0 0.00 0.00 0.00 28 1007.2
20260504012508 90 56 4.0 8.0 0.00 0.00 0.00 29 1007.2
20260504012010 90 44 3.0 9.0 0.00 0.00 0.00 29 1007.2
20260504011517 90 86 3.0 9.0 0.00 0.00 0.00 28 1007.3
20260504011008 90 65 5.0 9.0 0.00 0.00 0.00 27 1007.3
20260504010510 91 51 4.0 7.0 0.00 0.00 0.00 27 1007.4
20260504010020 91 64 4.0 8.0 0.00 0.00 0.00 27 1007.4
20260504005508 91 41 5.0 11.0 0.00 0.00 0.00 27 1007.4
20260504005009 91 67 4.0 11.0 0.00 0.00 0.00 26 1007.5
20260504004524 91 56 4.0 9.0 0.00 0.00 0.00 26 1007.5
20260504004010 91 58 4.0 8.0 0.00 0.00 0.00 26 1007.5
20260504003510 91 61 3.0 8.0 0.00 0.00 0.00 26 1007.6
20260504003026 91 30 4.0 10.0 0.00 0.00 0.00 25 1007.6
20260504002509 91 62 4.0 10.0 0.00 0.00 0.00 26 1007.7
20260504002010 92 64 3.0 7.0 0.00 0.00 0.00 26 1007.7
20260504001526 91 91 3.0 7.0 0.00 0.00 0.00 27 1007.7
20260504001010 91 52 3.0 7.0 0.00 0.00 0.00 26 1007.7
20260504000508 91 41 4.0 9.0 0.00 0.00 0.00 27 1007.6
20260504000028 91 81 4.0 11.0 0.00 0.00 0.00 26 1007.6
20260503235503 91 79 5.0 11.0 0.00 0.00 0.00 28 1007.7
20260503235003 91 80 5.0 10.0 0.00 0.00 0.00 27 1007.7
20260503234505 91 116 4.0 13.0 0.00 0.00 0.00 27 1007.8
20260503234011 92 72 4.0 13.0 0.00 0.00 0.00 27 1008.0
20260503233507 92 79 4.0 9.0 0.00 0.00 0.00 27 1008.0
20260503233008 92 62 4.0 7.0 0.00 0.00 0.00 27 1008.0
20260503232504 92 148 4.0 7.0 0.00 0.00 0.00 27 1008.1
20260503232008 92 63 5.0 9.0 0.00 0.00 0.00 26 1008.1
20260503231513 92 86 4.0 9.0 0.00 0.00 0.00 26 1008.2
20260503231006 92 43 5.0 11.0 0.00 0.00 0.00 26 1008.2
20260503230508 92 50 5.0 11.0 0.00 0.00 0.00 25 1008.3
20260503230019 92 38 4.0 8.0 0.00 0.00 0.00 26 1008.3
20260503225507 93 99 2.0 6.0 0.00 0.00 0.00 24 1008.5
20260503225006 93 97 1.0 5.0 0.00 0.00 0.00 24 1008.5
20260503224503 92 131 2.0 6.0 0.00 0.00 0.00 24 1008.6
20260503224005 92 229 3.0 9.0 0.00 0.00 0.00 23 1008.7
20260503223505 92 186 3.0 11.0 0.00 0.00 0.00 23 1008.7
20260503223003 93 82 6.0 11.0 0.00 0.00 0.00 22 1008.8
20260503222502 93 90 3.0 6.0 0.00 0.00 0.00 24 1008.8
20260503222006 92 154 2.0 7.0 0.00 0.00 0.00 24 1008.9
20260503221508 92 85 2.0 7.0 0.00 0.00 0.00 25 1009.0
20260503221007 91 79 2.0 10.0 0.00 0.00 0.00 26 1009.0
20260503220508 90 243 1.0 10.0 0.00 0.00 0.00 30 1009.1
20260503220012 91 43 4.0 8.0 0.00 0.00 0.00 29 1009.2
20260503215506 90 91 4.0 8.0 0.00 0.00 0.00 26 1009.3
20260503215011 90 96 2.0 30.0 0.00 0.00 0.00 30 1009.3
20260503214518 90 144 3.0 30.0 0.00 0.00 0.00 33 1009.4
20260503214015 90 328 2.0 11.0 0.00 0.00 0.00 33 1009.4
20260503213514 90 32 4.0 11.0 0.00 0.00 0.00 32 1009.5
20260503213029 90 87 2.0 11.0 0.00 0.00 0.00 32 1009.6
20260503212503 89 104 5.0 11.0 0.00 0.00 0.00 33 1009.7
20260503212004 89 113 4.0 7.0 0.00 0.00 0.00 34 1009.8
20260503211515 89 70 3.0 7.0 0.00 0.00 0.00 36 1009.8
20260503211007 88 70 3.0 9.0 0.00 0.00 0.00 35 1009.9
20260503210504 87 99 4.0 9.0 0.00 0.00 0.00 36 1010.0
20260503210011 87 84 3.0 10.0 0.00 0.00 0.00 38 1010.1
20260503205507 87 89 6.0 10.0 0.00 0.00 0.00 38 1010.1
20260503205015 87 75 3.0 12.0 0.00 0.00 0.00 39 1010.2
20260503204523 87 46 4.0 12.0 0.00 0.00 0.00 39 1010.3
20260503204011 86 104 1.0 10.0 0.00 0.00 0.00 40 1010.3
20260503203502 86 113 4.0 10.0 0.00 0.00 0.00 40 1010.4
20260503203004 86 38 3.0 8.0 0.00 0.00 0.00 40 1010.4
20260503202503 86 110 3.0 8.0 0.00 0.00 0.00 40 1010.4
20260503202004 85 86 3.0 8.0 0.00 0.00 0.00 41 1010.6
20260503201505 85 84 4.0 8.0 0.00 0.00 0.00 40 1010.7
20260503201005 85 107 4.0 8.0 0.00 0.00 0.00 41 1010.7
20260503200503 84 141 3.0 7.0 0.00 0.00 0.00 44 1010.7
20260503200010 84 71 3.0 7.0 0.00 0.00 0.00 43 1010.8
20260503195503 83 56 4.0 9.0 0.00 0.00 0.00 44 1010.9
20260503195006 83 53 5.0 9.0 0.00 0.00 0.00 44 1011.1
20260503194510 82 51 3.0 9.0 0.00 0.00 0.00 45 1011.1
20260503194007 81 14 2.0 9.0 0.00 0.00 0.00 46 1011.2
20260503193506 81 40 3.0 8.0 0.00 0.00 0.00 46 1011.3
20260503193016 81 70 2.0 8.0 0.00 0.00 0.00 47 1011.4
20260503192507 80 30 2.0 8.0 0.00 0.00 0.00 48 1011.4
20260503192011 80 91 4.0 7.0 0.00 0.00 0.00 47 1011.5
20260503191503 80 111 4.0 7.0 0.00 0.00 0.00 47 1011.6
20260503191004 79 99 3.0 8.0 0.00 0.00 0.00 48 1011.6
20260503190504 79 30 4.0 9.0 0.00 0.00 0.00 49 1011.6
20260503190016 78 310 3.0 9.0 0.00 0.00 0.00 49 1011.7
20260503185505 78 11 5.0 9.0 0.00 0.00 0.00 48 1011.7
20260503185003 78 72 4.0 6.0 0.00 0.00 0.00 49 1011.8
20260503184515 78 111 3.0 6.0 0.00 0.00 0.00 49 1011.9
20260503184004 77 85 2.0 9.0 0.00 0.00 0.00 49 1011.9
20260503183512 77 78 4.0 9.0 0.00 0.00 0.00 50 1011.9
20260503183024 76 58 2.0 6.0 0.00 0.00 0.00 51 1012.0
20260503182507 76 97 3.0 6.0 0.00 0.00 0.00 51 1012.1
20260503182009 75 60 2.0 7.0 0.00 0.00 0.00 53 1012.1
20260503181526 75 150 2.0 7.0 0.00 0.00 0.00 54 1012.2
20260503181008 74 65 3.0 8.0 0.00 0.00 0.00 55 1012.3
20260503180510 74 65 3.0 8.0 0.00 0.00 0.00 55 1012.4
20260503180024 73 81 3.0 8.0 0.00 0.00 0.00 56 1012.3
20260503175504 72 114 1.0 6.0 0.00 0.00 0.00 58 1012.4
20260503175007 72 89 3.0 6.0 0.00 0.00 0.00 59 1012.5
20260503174505 72 49 3.0 6.0 0.00 0.00 0.00 59 1012.5
20260503174004 71 102 2.0 7.0 0.00 0.00 0.00 59 1012.6
20260503173507 71 95 3.0 7.0 0.00 0.00 0.00 59 1012.6
20260503173035 71 91 3.0 6.0 0.00 0.00 0.00 59 1012.7
20260503172505 71 43 3.0 6.0 0.00 0.00 0.00 60 1012.7
20260503172007 70 84 3.0 8.0 0.00 0.00 0.00 61 1012.7
20260503171515 70 68 4.0 8.0 0.00 0.00 0.00 62 1012.8
20260503171007 70 143 3.0 7.0 0.00 0.00 0.00 63 1012.8
20260503170507 69 72 1.0 8.0 0.00 0.00 0.00 65 1012.9
20260503151006 56 145 0.0 0.0 0.00 0.00 0.00 92 1013.4
20260503150510 55 145 0.0 0.0 0.00 0.00 0.00 92 1013.4
20260503131007 50 157 0.0 0.0 0.00 0.00 0.00 92 1013.0
20260503130508 50 174 0.0 0.0 0.00 0.00 0.00 91 1012.9
20260503110507 52 136 0.0 0.0 0.00 0.00 0.00 91 1013.3
20260503090511 54 144 0.0 0.0 0.00 0.00 0.00 89 1013.5
20260503081515 55 144 0.0 0.0 0.00 0.00 0.00 87 1013.5
20260503081008 55 144 0.0 0.0 0.00 0.00 0.00 87 1013.5
20260503080505 55 144 0.0 0.0 0.00 0.00 0.00 87 1013.4
20260503072508 57 150 0.0 0.0 0.00 0.00 0.00 86 1013.6
20260503072004 57 150 0.0 0.0 0.00 0.00 0.00 86 1013.6
20260503071505 57 150 0.0 0.0 0.00 0.00 0.00 85 1013.6
20260503071005 57 120 0.0 0.0 0.00 0.00 0.00 85 1013.5
20260503070504 57 120 0.0 0.0 0.00 0.00 0.00 85 1013.6
20260503055004 60 124 0.0 0.0 0.00 0.00 0.00 80 1013.6